[[{"header":{"parameterUnit":"m.s-1","parameterCategory":1,"la1":30.2991,"la2":30.254,"lo1":-89.0895,"lo2":-89.0444,"dy":0.0017,"dx":0.0017,"nx":28,"ny":28,"refTime":"2024-05-28T21:00:00:Z","depth":0,"parameterNumber":2,"parameterNumberName":"U-component_of_WINDS"},"data":[0,0,0,0,0,0,0,0,0,0,0,0,0,0,0,0,0,0,0,0,0,0,0,0,0,0,0,0,0,0,0,0,0,0,0,0,0,0,0,0,0,0,0,0,0,0,0,0,0,0,0,0,0,0,0,0,0,0,-1.5675,-1.5675,0,-1.5712,-1.5712,-1.5713,-1.57,-1.5699,-1.5698,-1.5698,-1.5735,-1.5737,-1.5739,0,0,0,0,0,0,0,0,0,0,0,0,0,-1.5594,-1.5595,-1.5675,-1.5675,-1.5676,-1.5712,-1.5712,-1.5713,-1.57,-1.5699,-1.5698,-1.5697,-1.5735,-1.5737,-1.5739,0,0,0,0,0,0,0,0,0,0,0,0,0,-1.563,-1.5596,-1.5675,-1.5674,-1.5674,-1.5712,-1.5712,-1.5713,-1.57,-1.5699,-1.5698,-1.5697,-1.5734,-1.5736,-1.5739,-1.578,0,0,-1.5747,-1.5748,0,0,0,0,0,0,0,0,-1.5628,-1.5633,-1.5674,-1.5674,-1.5674,-1.57,-1.5697,-1.5735,-1.5701,-1.569,-1.5698,-1.5696,-1.5724,-1.5728,-1.5737,-1.5781,-1.5783,-1.5747,-1.5749,-1.575,-1.5751,0,0,0,0,0,0,0,-1.5625,-1.5631,-1.5689,-1.5674,-1.5675,-1.5672,-1.5675,-1.5704,-1.5714,-1.5691,-1.569,-1.5695,-1.5724,-1.5735,-1.5738,-1.5784,-1.5747,-1.575,-1.5751,-1.5752,-1.5863,-1.5864,0,0,0,0,0,0,-1.5622,-1.5629,-1.5688,-1.5691,-1.5647,-1.5674,-1.5678,-1.5693,-1.5713,-1.5715,-1.5696,-1.5694,-1.5731,-1.5735,-1.5739,-1.5788,-1.575,-1.5752,-1.5754,-1.5862,-1.5863,-1.5865,0,0,0,0,0,0,-1.5621,-1.5628,-1.5687,-1.566,-1.5667,-1.5677,-1.5693,-1.5694,-1.5705,-1.5717,-1.5719,-1.5705,-1.573,-1.5736,-1.577,-1.5789,-1.5754,-1.5756,-1.586,-1.5862,-1.5864,-1.5886,0,0,0,0,0,0,-1.5618,-1.5627,-1.5643,-1.566,-1.5668,-1.5717,-1.5695,-1.5696,-1.5709,-1.5707,-1.5726,-1.5728,-1.573,-1.5766,-1.5772,-1.5792,-1.5758,-1.5858,-1.5861,-1.5863,-1.5884,-1.5889,-1.5893,0,0,0,0,0,-1.5616,-1.5648,-1.5644,-1.5651,-1.5688,-1.5718,-1.5723,-1.5724,-1.5711,-1.5727,-1.5735,-1.5727,-1.5786,-1.5769,-1.5777,-1.5798,-1.5857,-1.586,-1.5863,-1.5882,-1.5888,-1.5893,0,0,0,0,0,0,-1.5632,-1.565,-1.5646,-1.5684,-1.57,-1.5716,-1.5735,-1.5731,-1.575,-1.5747,-1.5749,-1.5753,-1.5788,-1.5796,-1.5777,-1.5838,-1.582,-1.5824,-1.5831,-1.5837,-1.5842,-1.5839,-1.576,0,0,0,0,0,-1.564,-1.5663,-1.5677,-1.571,-1.5718,-1.5725,-1.5738,-1.5738,-1.5754,-1.5761,-1.5771,-1.5787,-1.5809,-1.5824,-1.5845,-1.5885,-1.5889,-1.5903,-1.5908,-1.5912,-1.5915,-1.5937,-1.5944,-1.5875,-1.5875,-1.5875,0,0,-1.5658,-1.567,-1.5684,-1.5714,-1.5726,-1.5749,-1.5731,-1.5757,-1.5774,-1.5765,-1.5798,-1.5806,-1.5824,-1.5861,-1.5878,-1.5869,-1.5935,-1.5915,-1.5918,-1.592,-1.5941,-1.5948,-1.5953,-1.5877,-1.5876,-1.5876,0,0,-1.5701,-1.5712,-1.5741,-1.5753,-1.5772,-1.5777,-1.5783,-1.58,-1.5805,-1.5838,-1.5832,-1.5853,-1.5891,-1.5904,-1.5915,-1.5964,-1.5957,-1.5971,-1.5995,-1.6016,-1.6021,-1.6026,-1.6043,-1.6049,-1.5975,-1.5975,-1.5975,0,-1.572,-1.5755,-1.5756,-1.5783,-1.5796,-1.5788,-1.5817,-1.5829,-1.5854,-1.5863,-1.5853,-1.59,-1.5912,-1.5952,-1.5964,-1.5974,-1.5981,-1.5968,-1.602,-1.6025,-1.603,-1.6046,-1.6053,-1.5976,-1.5976,-1.5976,-1.5976,0,-1.5777,-1.5802,-1.5823,-1.5846,-1.5862,-1.5889,-1.5895,-1.591,-1.5909,-1.5915,-1.5949,-1.5962,-1.5986,-1.5995,-1.5995,-1.6036,-1.603,-1.602,-1.6001,-1.6038,-1.6053,-1.6059,-1.5978,-1.5978,-1.5977,-1.5977,0,0,-1.5832,-1.5856,-1.5864,-1.5874,-1.5894,-1.5913,-1.594,-1.5963,-1.5977,-1.5994,-1.6017,-1.6049,-1.604,-1.6054,-1.6054,-1.6073,-1.611,-1.6061,-1.6061,-1.6069,-1.6156,-1.6163,-1.617,-1.6106,-1.6107,-1.6108,-1.6154,0,-1.5877,-1.5924,-1.5926,-1.597,-1.5992,-1.5986,-1.601,-1.6024,-1.6031,-1.6051,-1.6058,-1.6081,-1.6067,-1.6075,-1.6094,-1.6102,-1.6127,-1.6098,-1.6127,-1.6128,-1.6122,-1.6178,-1.6185,-1.6228,-1.616,-1.6161,-1.6162,0,-1.5935,-1.5954,-1.6,-1.6016,-1.6026,-1.6047,-1.6068,-1.6088,-1.6104,-1.6108,-1.6122,-1.612,-1.6148,-1.6129,-1.6167,-1.6147,-1.6159,-1.6165,-1.6166,-1.6169,-1.6147,-1.6182,-1.6242,-1.6248,-1.6172,-1.6171,-1.617,0,-1.597,-1.6007,-1.6039,-1.6048,-1.6069,-1.6084,-1.6093,-1.6108,-1.6122,-1.6141,-1.615,-1.6171,-1.6183,-1.62,-1.6204,-1.619,-1.6242,-1.6223,-1.6245,-1.6245,-1.6256,-1.6255,-1.6319,-1.6265,-1.6265,-1.6264,-1.6264,0,-1.602,-1.6048,-1.6055,-1.6075,-1.6106,-1.6108,-1.6139,-1.6147,-1.6161,-1.6182,-1.6178,-1.6198,-1.6202,-1.6222,-1.6225,-1.6256,-1.6262,-1.6265,-1.6266,-1.6265,-1.6265,-1.6273,-1.627,-1.6266,-1.6266,-1.6265,-1.6265,0,-1.6064,-1.607,-1.6105,-1.6121,-1.6126,-1.6148,-1.6162,-1.6181,-1.6186,-1.6213,-1.622,-1.6229,-1.6253,-1.6258,-1.6287,-1.6289,-1.6326,-1.6324,-1.632,-1.632,-1.6342,-1.6339,-1.6412,-1.6422,-1.6362,-1.6362,-1.6363,0,-1.6095,-1.6117,-1.6135,-1.6149,-1.6159,-1.6181,-1.6195,-1.6198,-1.6213,-1.6234,-1.625,-1.6274,-1.6293,-1.6331,-1.6341,-1.6363,-1.6361,-1.6385,-1.6364,-1.6363,-1.636,-1.6359,-1.6361,-1.6388,-1.6389,-1.639,-1.639,0,-1.615,-1.6152,-1.6172,-1.6194,-1.6211,-1.6228,-1.6244,-1.6255,-1.6261,-1.6277,-1.6302,-1.6317,-1.6346,-1.637,-1.6391,-1.6401,-1.6396,-1.6396,-1.6403,-1.6402,-1.6399,-1.6401,-1.6331,-1.6395,-1.6394,-1.6394,-1.6394,-1.6393,-1.6189,-1.6208,-1.6223,-1.6246,-1.6259,-1.6274,-1.6292,-1.63,-1.6321,-1.6345,-1.6345,-1.6372,-1.6388,-1.6417,-1.6428,-1.6449,-1.6441,-1.645,-1.6453,-1.6455,-1.6456,-1.6396,-1.6453,-1.6453,-1.6452,-1.6452,-1.6452,0,-1.6243,-1.6253,-1.6274,-1.6297,-1.6315,-1.6309,-1.6326,-1.6342,-1.6365,-1.638,-1.6399,-1.6427,-1.645,-1.6461,-1.6484,-1.6498,-1.6497,-1.6504,-1.6503,-1.6505,-1.6462,-1.6454,-1.6505,-1.6505,-1.6505,-1.6505,-1.6505,-1.6505,-1.6274,-1.6305,-1.6309,-1.6346,-1.6355,-1.6382,-1.6392,-1.6406,-1.6418,-1.645,-1.6468,-1.6475,-1.6489,-1.6512,-1.6533,-1.6535,-1.6544,-1.6552,-1.6553,-1.6513,-1.6508,-1.6503,-1.6495,-1.6554,-1.6554,-1.6594,-1.6595,-1.6595]},{"header":{"parameterUnit":"m.s-1","parameterCategory":1,"la1":30.2991,"la2":30.254,"lo1":-89.0895,"lo2":-89.0444,"dy":0.0017,"dx":0.0017,"nx":28,"ny":28,"refTime":"2024-05-28T21:00:00:Z","depth":0,"parameterNumber":3,"parameterNumberName":"V-component_of_WINDS"},"data":[0,0,0,0,0,0,0,0,0,0,0,0,0,0,0,0,0,0,0,0,0,0,0,0,0,0,0,0,0,0,0,0,0,0,0,0,0,0,0,0,0,0,0,0,0,0,0,0,0,0,0,0,0,0,0,0,0,0,-0.0399,-0.0399,0,-0.0397,-0.0397,-0.0397,-0.0401,-0.0401,-0.0401,-0.0401,-0.0399,-0.0399,-0.0399,0,0,0,0,0,0,0,0,0,0,0,0,0,-0.0404,-0.0404,-0.0399,-0.0399,-0.0399,-0.0397,-0.0397,-0.0397,-0.0401,-0.0401,-0.0401,-0.0401,-0.0399,-0.0399,-0.0399,0,0,0,0,0,0,0,0,0,0,0,0,0,-0.0402,-0.0404,-0.0399,-0.04,-0.0401,-0.0397,-0.0397,-0.0397,-0.0401,-0.0401,-0.0401,-0.0401,-0.0399,-0.0399,-0.0399,-0.0393,0,0,-0.0398,-0.0398,0,0,0,0,0,0,0,0,-0.0402,-0.0402,-0.04,-0.04,-0.04,-0.0399,-0.0398,-0.0396,-0.0401,-0.0401,-0.0401,-0.0402,-0.0399,-0.0399,-0.0398,-0.0393,-0.0393,-0.0398,-0.0398,-0.0398,-0.0397,0,0,0,0,0,0,0,-0.0402,-0.0402,-0.0398,-0.04,-0.04,-0.0401,-0.0401,-0.0398,-0.0399,-0.0401,-0.0401,-0.0401,-0.0399,-0.0398,-0.0398,-0.0393,-0.0398,-0.0398,-0.0397,-0.0397,-0.0383,-0.0383,0,0,0,0,0,0,-0.0402,-0.0402,-0.0398,-0.0398,-0.0402,-0.0401,-0.0401,-0.04,-0.0399,-0.0399,-0.0401,-0.0401,-0.0399,-0.0398,-0.0398,-0.0391,-0.0398,-0.0397,-0.0397,-0.0383,-0.0383,-0.0383,0,0,0,0,0,0,-0.0402,-0.0402,-0.0398,-0.04,-0.04,-0.04,-0.0399,-0.0399,-0.0399,-0.0399,-0.0399,-0.04,-0.0399,-0.0398,-0.0394,-0.0391,-0.0397,-0.0397,-0.0384,-0.0383,-0.0383,-0.0378,0,0,0,0,0,0,-0.0403,-0.0402,-0.04,-0.04,-0.04,-0.0395,-0.0399,-0.0399,-0.0398,-0.0399,-0.0398,-0.0398,-0.0399,-0.0395,-0.0394,-0.0391,-0.0397,-0.0384,-0.0383,-0.0383,-0.0378,-0.0377,-0.0377,0,0,0,0,0,-0.0403,-0.0399,-0.04,-0.04,-0.0397,-0.0395,-0.0394,-0.0396,-0.0398,-0.0396,-0.0396,-0.0398,-0.0392,-0.0394,-0.0394,-0.039,-0.0384,-0.0384,-0.0383,-0.0379,-0.0378,-0.0377,0,0,0,0,0,0,-0.0398,-0.0399,-0.04,-0.0396,-0.0395,-0.0395,-0.0393,-0.0395,-0.0393,-0.0393,-0.0395,-0.0395,-0.039,-0.039,-0.0393,-0.0385,-0.0388,-0.0388,-0.0385,-0.0384,-0.0383,-0.0383,-0.0397,0,0,0,0,0,-0.0397,-0.0395,-0.0396,-0.0392,-0.0391,-0.0392,-0.0391,-0.0392,-0.0391,-0.0391,-0.0391,-0.039,-0.0387,-0.0386,-0.0384,-0.0378,-0.0378,-0.0376,-0.0375,-0.0374,-0.0373,-0.037,-0.0369,-0.0381,-0.0381,-0.0381,0,0,-0.0394,-0.0394,-0.0393,-0.0391,-0.039,-0.0388,-0.0392,-0.0389,-0.0387,-0.039,-0.0387,-0.0386,-0.0385,-0.038,-0.0378,-0.038,-0.037,-0.0374,-0.0373,-0.0373,-0.0369,-0.0368,-0.0367,-0.0381,-0.0381,-0.0381,0,0,-0.0387,-0.0387,-0.0384,-0.0384,-0.0383,-0.0383,-0.0382,-0.0382,-0.0382,-0.0378,-0.038,-0.0378,-0.0374,-0.0373,-0.0372,-0.0364,-0.0366,-0.0364,-0.0359,-0.0356,-0.0355,-0.0354,-0.0351,-0.0349,-0.0363,-0.0363,-0.0363,0,-0.0384,-0.038,-0.0382,-0.0379,-0.0378,-0.0381,-0.0377,-0.0377,-0.0375,-0.0374,-0.0376,-0.0371,-0.0371,-0.0365,-0.0363,-0.0363,-0.0361,-0.0364,-0.0355,-0.0354,-0.0353,-0.035,-0.0349,-0.0363,-0.0363,-0.0363,-0.0363,0,-0.0376,-0.0373,-0.0371,-0.0369,-0.0368,-0.0365,-0.0366,-0.0364,-0.0365,-0.0365,-0.0361,-0.036,-0.0358,-0.0357,-0.0358,-0.0351,-0.0352,-0.0355,-0.0358,-0.0352,-0.0349,-0.0348,-0.0362,-0.0362,-0.0363,-0.0363,0,0,-0.0366,-0.0366,-0.0364,-0.0364,-0.0363,-0.0361,-0.0358,-0.0355,-0.0354,-0.0353,-0.0349,-0.0346,-0.0348,-0.0347,-0.0347,-0.0345,-0.0338,-0.0347,-0.0347,-0.0345,-0.033,-0.0328,-0.0327,-0.0339,-0.0339,-0.0339,-0.033,0,-0.0359,-0.0354,-0.0355,-0.0349,-0.0347,-0.0349,-0.0346,-0.0345,-0.0345,-0.0343,-0.0343,-0.034,-0.0343,-0.0342,-0.034,-0.0339,-0.0335,-0.034,-0.0335,-0.0335,-0.0335,-0.0325,-0.0323,-0.0315,-0.0329,-0.0329,-0.0328,0,-0.035,-0.0348,-0.0343,-0.0342,-0.0341,-0.0338,-0.0336,-0.0334,-0.0333,-0.0333,-0.0331,-0.0333,-0.0329,-0.0333,-0.0327,-0.033,-0.0329,-0.0328,-0.0328,-0.0327,-0.0331,-0.0324,-0.0313,-0.0311,-0.0327,-0.0327,-0.0327,0,-0.0343,-0.0339,-0.0335,-0.0335,-0.0334,-0.0332,-0.0331,-0.033,-0.0329,-0.0327,-0.0326,-0.0323,-0.0322,-0.0319,-0.032,-0.0323,-0.0314,-0.0318,-0.0313,-0.0313,-0.0311,-0.0311,-0.0299,-0.0311,-0.0311,-0.0311,-0.0311,0,-0.0335,-0.0331,-0.0332,-0.033,-0.0325,-0.0327,-0.0322,-0.0322,-0.0321,-0.0318,-0.032,-0.0317,-0.0318,-0.0315,-0.0316,-0.0311,-0.031,-0.031,-0.031,-0.0309,-0.0309,-0.0308,-0.0308,-0.0311,-0.0311,-0.0311,-0.0311,0,-0.0326,-0.0327,-0.0322,-0.0322,-0.0322,-0.0318,-0.0318,-0.0315,-0.0315,-0.0312,-0.0311,-0.0311,-0.0307,-0.0308,-0.0304,-0.0304,-0.0298,-0.0299,-0.0298,-0.0298,-0.0293,-0.0294,-0.028,-0.0277,-0.0291,-0.0291,-0.0291,0,-0.032,-0.0317,-0.0317,-0.0315,-0.0314,-0.0312,-0.031,-0.0311,-0.0309,-0.0307,-0.0305,-0.0302,-0.0299,-0.0293,-0.0293,-0.029,-0.029,-0.0286,-0.029,-0.0289,-0.0289,-0.0289,-0.0289,-0.0285,-0.0284,-0.0284,-0.0284,0,-0.031,-0.031,-0.0308,-0.0306,-0.0304,-0.0302,-0.0301,-0.0299,-0.03,-0.0298,-0.0295,-0.0293,-0.0289,-0.0285,-0.0282,-0.0281,-0.0283,-0.0283,-0.0282,-0.0281,-0.028,-0.028,-0.0295,-0.0283,-0.0283,-0.0283,-0.0283,-0.0283,-0.0302,-0.0299,-0.0298,-0.0296,-0.0295,-0.0293,-0.0291,-0.029,-0.0288,-0.0285,-0.0286,-0.0282,-0.028,-0.0276,-0.0275,-0.0271,-0.0273,-0.0271,-0.027,-0.027,-0.0269,-0.0281,-0.0271,-0.0271,-0.0271,-0.0271,-0.0271,0,-0.0291,-0.0291,-0.0288,-0.0286,-0.0284,-0.0286,-0.0284,-0.0282,-0.0279,-0.0277,-0.0275,-0.027,-0.0267,-0.0266,-0.0263,-0.026,-0.026,-0.0259,-0.0259,-0.0258,-0.0268,-0.0269,-0.0259,-0.0259,-0.0259,-0.0259,-0.0259,-0.0259,-0.0286,-0.0281,-0.0281,-0.0276,-0.0276,-0.0272,-0.0271,-0.0269,-0.0268,-0.0263,-0.026,-0.026,-0.0258,-0.0255,-0.0252,-0.0251,-0.025,-0.0248,-0.0248,-0.0257,-0.0258,-0.0259,-0.026,-0.0248,-0.0248,-0.0238,-0.0238,-0.0238]}]]